Regional Weather Roundup
Issued by NWS

Home | Current Version | Previous Version | Text Only | Print | Product List | Glossary Off
Versions: 1 2 3 4 5 6 7 8 9 10 11 12 13 14 15 16 17 18 19 20 21 22 23 24 25 26 27 28 29 30 31 32 33 34 35 36 37 38 39 40 41 42 43 44 45 46 47 48 49 50

000
ASUS44 KMEG 271700
RWRTN
TENNESSEE HOURLY STATE WEATHER ROUNDUP
NATIONAL WEATHER SERVICE MEMPHIS TN
1200 PM CDT WED AUG 27 2014

TNZ002-004-019-021-049-052-054-088>092-271800-
WEST TENNESSEE

CITY           SKY/WX    TMP DP  RH WIND       PRES   REMARKS
MEMPHIS INTL   PTSUNNY   89  66  46 NE9       30.10F HX  91
NWS MEMPHIS      N/A     88 N/A N/A MISG        N/A
JACKSON        SUNNY     87  67  51 E5        30.11F HX  90
DYERSBURG      PTSUNNY   88  70  55 N3        30.11F HX  92
UNION CITY     MOSUNNY   88  75  66 CALM      30.10F HX  97
PARIS          MOSUNNY   84  72  65 CALM      30.12F
LEXINGTON      MOSUNNY   88  66  48 CALM      30.11F HX  90
SAVANNAH       MOSUNNY   88  68  51 CALM      30.12F HX  91
$$

TNZ008-025-027-028-033-062-065-066-271800-
NORTH MIDDLE TENNESSEE

CITY           SKY/WX    TMP DP  RH WIND       PRES   REMARKS
NASHVILLE      PTSUNNY   89  70  53 NE8       30.11F HX  94
CLARKSVILLE    MOSUNNY   89  70  53 CALM      30.10F HX  94
COOKEVILLE     SUNNY     84  70  61 CALM      30.13F
CROSSVILLE     PTSUNNY   81  62  52 CALM      30.17F
$$

TNZ061-075-076-078-094-096-097-271800-
SOUTH MIDDLE TENNESSEE

CITY           SKY/WX    TMP DP  RH WIND       PRES   REMARKS
TULLAHOMA      MOSUNNY   84  70  61 N8        30.14F
WINCHESTER     MOSUNNY   84  70  61 NE5       30.13F
SHELBYVILLE    MOSUNNY   88  73  62 N6        30.13F HX  96
$$

TNZ017-018-042-046-047-271800-
NORTHEAST TENNESSEE

CITY           SKY/WX    TMP DP  RH WIND       PRES   REMARKS
TRI CITIES     MOSUNNY   80  60  50 VRB3      30.15F
ELIZABETHTON   SUNNY     81  61  50 W8        30.14F
$$

TNZ012-013-036-069-073-074-271800-
CENTRAL EAST TENNESSEE

CITY           SKY/WX    TMP DP  RH WIND       PRES   REMARKS
KNOXVILLE      MOSUNNY   82  66  58 N5        30.12F
OAK RIDGE      SUNNY     83  65  54 CALM      30.14F
GATLINBURG     MOSUNNY   82  63  51 CALM      30.12F
$$

TNZ083-085-099-271800-
SOUTHEAST TENNESSEE

CITY           SKY/WX    TMP DP  RH WIND       PRES   REMARKS
CHATTANOOGA    MOSUNNY   85  64  49 VRB3      30.11F
$$

SKY/WX REPORTED AS FAIR MEANS FEW OR NO CLOUDS BELOW
12 THOUSAND FEET.



USA.gov is the U.S. government's official web portal to all federal, state and local government web resources and services.